Miscellaneous Local Product
Issued by NWS North Platte, NE

Home | Current Version | Previous Version | Text Only | Print | Product List | Glossary On
Versions: 1 2 3 4 5 6 7 8 9 10 11 12 13 14 15 16 17 18 19 20 21 22 23 24 25 26 27 28 29 30 31 32 33 34 35 36 37 38 39 40 41 42 43 44 45 46 47 48 49 50
000
AXUS43 KLBF 170610
MISLBF


WESTERN AND NORTH CENTRAL NEBRASKA HOURLY WEATHER ROUNDUP
NATIONAL WEATHER SERVICE NORTH PLATTE NE
1200 AM CST WED JAN 17 2018

NOTE: "FAIR" INDICATES FEW OR NO CLOUDS BELOW 12,000 FEET WITH NO
SIGNIFICANT WEATHER AND/OR OBSTRUCTIONS TO VISIBILITY.

NOTE: STATIONS NOT REPORTING VARIABLES SUCH AS SKY/WEATHER OR
PRESSURE ARE PROVIDED BY RAWS AND APRS NETWORKS AND ARE NOT UNDER
NATIONAL WEATHER SERVICE QUALITY CONTROL.

...OBSERVATIONS IN AND NEAR THE EASTERN PANHANDLE OF NEBRASKA...

CITY           SKY/WX    TMP DP  RH WIND       PRES   REMARKS
PINE RIDGE     CLEAR     19   6  57 SW6       30.24F WCI  11
GORDON         FAIR      17   4  56 SW12G17   30.24F WCI   4
CHADRON        CLEAR      7   3  84 CALM      30.24F
ALLIANCE       CLEAR      5   0  79 S8        30.25F WCI  -8
SIDNEY         CLEAR      8   1  73 SW10      30.26F WCI  -6
CRESCENT LAKE    N/A      9   2  74 SE5         N/A  WCI   1
$$

...OBSERVATIONS IN NORTHERN NEBRASKA AND FAR SOUTHERN SOUTH DAKOTA...

CITY           SKY/WX    TMP DP  RH WIND       PRES   REMARKS
WINNER         FAIR      16   3  56 SW20G28   30.31F WCI  -1
VALENTINE      CLEAR     11   2  67 SW7       30.32F WCI   0
AINSWORTH      CLEAR     10   1  65 SW15      30.33F WCI  -6
O`NEILL        CLEAR      8   1  72 S10       30.42F WCI  -6
THEDFORD       PTCLDY    12   1  63 SW8       30.37R WCI   0
BROKEN BOW     CLEAR      2  -5  72 S5        30.44F WCI  -8
ORD            CLEAR      6   0  76 S9        30.46F WCI  -8
ALBION         CLOUDY     5  -1  76 S3        30.51F
VALENTINE NWR    N/A      9  -2  61 S8          N/A  WCI  -3
HALSEY           N/A      9  -3  58 S6G13       N/A  WCI  -1
BUTTE            N/A      6   0  74 S10         N/A  WCI  -9
CHAMBERS         N/A      6  -5  60 S5          N/A  WCI  -3
EWING            N/A      7   2  79 SW9         N/A  WCI  -6
$$

...OBSERVATIONS IN SOUTHWEST NEBRASKA AND FAR NORTHEAST COLORADO...

CITY           SKY/WX    TMP DP  RH WIND       PRES   REMARKS
WRAY           FAIR      18   1  49 SW13      30.32F WCI   4
HOLYOKE        FAIR       7   0  72 CALM      30.32F
IMPERIAL       CLEAR      5  -2  72 SE7       30.35F WCI  -7
OGALLALA       CLEAR     13   2  63 SW6       30.35F WCI   3
NORTH PLATTE   CLEAR      9  -1  64 S6        30.41F WCI  -1
MCCOOK         CLEAR      6  -1  73 S7        30.46F WCI  -6
LEXINGTON      CLEAR     10   2  69 S8        30.48S WCI  -1
STAPLETON        N/A      5  -1  77 CALM        N/A
GOTHENBURG       N/A      9   0  67 CALM        N/A
CALLAWAY         N/A      7   1  75 S12         N/A  WCI  -8
$$

...OBSERVATIONS IN CENTRAL LINCOLN COUNTY AREA...

CITY           SKY/WX    TMP DP  RH WIND       PRES   REMARKS
N.P. AIRPORT   CLEAR      9  -1  64 S6        30.41F WCI  -1
N.P. DOWNTOWN    N/A      9   1  68 CALM        N/A
N.P. SOUTHEAST   N/A     10  -1  62 S6          N/A  WCI   0
N.P. HILLCREST   N/A     11   2  66 S5          N/A  WCI   3
$$

...SOME OBSERVATIONS FROM AROUND THE REGION...

CITY           SKY/WX    TMP DP  RH WIND       PRES   REMARKS
DENVER         CLEAR     19   8  62 SW7       30.23S WCI  10
BERTHOUD PASS  FAIR      14   3  62 NW20G30   30.29S WCI  -3
GRAND JUNCTION CLEAR     24  14  65 SE5       30.38R WCI  18
LARAMIE        CLEAR     10  -4  53 CALM      30.21S
CHEYENNE       CLEAR     16   4  59 SW6       30.19F WCI   7
CASPER         CLEAR     29   4  34 SW18      30.19R WCI  16
BISMARCK       CLEAR      5  -4  66 CALM      30.24F
RAPID CITY     PTCLDY    13   4  67 E3        30.17F
PIERRE         CLEAR      6   1  80 SE7       30.29F WCI  -6
SIOUX FALLS    CLOUDY     5  -1  76 S10       30.47F WCI -10
OMAHA          CLOUDY     1  -2  87 SE8       30.64F WCI -13
GRAND ISLAND   CLOUDY     7   1  76 S10       30.53F WCI  -8
SCOTTSBLUFF    CLEAR     10   2  69 CALM      30.25S
KANSAS CITY    CLOUDY    -1  -5  82 S6        30.68S WCI -13
HILL CITY      CLOUDY     5  -1  76 SW5       30.54F WCI  -4
WICHITA        CLOUDY     4   1  88 SW5       30.68F WCI  -5
DODGE CITY     CLOUDY     4  -5  66 S8        30.54F WCI  -9
OKLAHOMA CITY  CLOUDY     5  -2  72 SW3       30.71S
DALLAS         CLOUDY    19   2  47 NE7       30.74F WCI  10
AMARILLO       CLOUDY    15 -10  32 S15       30.52S WCI   0
$$




USA.gov is the U.S. government's official web portal to all federal, state and local government web resources and services.